Content
SEND FEEDBACK

Daily
Averages
Monthly
Summary
United States of America

PYGA BEACH, GUAM


Home > North America > United States > Guam
Elevation: 6 meters     Latitude: 13 17N     Longitude: 144 39E

WEATHER
 
SELECT A DAY
Number of Records: 342,166;   Date Range: 1/1/95 - 8/12/14
 
SHARE

PRINT THIS DATA

[ ← Previous Day ]
WEATHER ALMANAC - 1 SEPTEMBER, 2013
[ Next Day → ]
[ °F ]   °C
Weather ElementAverageHighLow
Temperature28.3 °C31 °C (10:38 am)24.8 °C (3:58 am)
Dewpoint24.3 °C25 °C (9:43 am)23.7 °C (3:58 am)
Humidity79.2 %94 % (3:58 am)70 % (9:48 am)
Barometer1011.2 hPa1012.9 hPa (8:58 am)1009.5 hPa (3:23 pm)
Wind Speed6 km/h13 km/h (9:43 am)
Weather ElementAverage
Visibility16.1 km
Wind DirectionENE (53.7 °)

Weather ElementTotal
Precipitation---
Cooling Degree Days9.6 (Base 18.3)
Growing Degree Days17.9 (Base 10)
Averaged from 41 records on 1 September, 2013
WEATHER CONDITIONS BREAKOUT
WIND DIRECTION BREAKOUT
WEATHER BY HOUR - 1 SEPTEMBER, 2013
[ °F ]   °C
Local TimeTemperatureDewpointHumidityBarometerVisibilityWind DirectionWind SpeedGust SpeedPrecipitationEventsConditions
1:58 AM26.2 °C24.2 °C89 %1010.8 hPa16.1 kmCalmClear
2:58 AM25.6 °C24.1 °C91 %1010.5 hPa16.1 kmCalmClear
3:58 AM24.8 °C23.7 °C94 %1010.5 hPa16.1 kmCalmClear
4:58 AM25.2 °C23.8 °C92 %1010.5 hPa16.1 kmCalmClear
5:58 AM25.1 °C23.9 °C93 %1010.8 hPa16.1 kmCalmClear
6:58 AM25.5 °C24 °C91 %1011.9 hPa16.1 kmCalmClear
7:58 AM28 °C24.7 °C82 %1012.5 hPa16.1 kmCalmClear
8:58 AM28.6 °C24.8 °C80 %1012.9 hPa16.1 kmNorth (360°)9.3 km/hMostly Cloudy
9:33 AM29 °C24 °C74 %1012.9 hPa16.1 kmVariable1.9 km/hOvercast
9:43 AM29 °C25 °C79 %1012.9 hPa16.1 kmEast (80°)13 km/hOvercast
9:48 AM30 °C24 °C70 %1012.5 hPa16.1 kmEast (80°)11.1 km/hMostly Cloudy
9:58 AM30.1 °C24.6 °C72 %1012.5 hPa16.1 kmNE (50°)7.4 km/hMostly Cloudy
10:03 AM30 °C25 °C74 %1012.5 hPa16.1 kmVariable7.4 km/hScattered Clouds
10:08 AM29 °C24 °C74 %1012.5 hPa16.1 kmVariable3.7 km/hMostly Cloudy
10:38 AM31 °C25 °C70 %1012.2 hPa16.1 kmEast (100°)9.3 km/hScattered Clouds
10:43 AM30 °C25 °C74 %1012.2 hPa16.1 kmEast (100°)11.1 km/hMostly Cloudy
10:58 AM29.7 °C24.5 °C73 %1012.2 hPa16.1 kmENE (70°)9.3 km/hMostly Cloudy
11:38 AM30 °C24 °C70 %1011.9 hPa16.1 kmEast (90°)9.3 km/hScattered Clouds
11:58 AM30.6 °C24.7 °C71 %1011.5 hPa16.1 kmENE (70°)13 km/hPartly Cloudy
12:23 PM30 °C24 °C70 %1011.2 hPa16.1 kmESE (110°)11.1 km/hMostly Cloudy
12:58 PM29.9 °C24.8 °C74 %1010.8 hPa16.1 kmENE (70°)5.6 km/hOvercast
1:58 PM30.2 °C24.3 °C70 %1010.2 hPa16.1 kmEast (100°)13 km/hMostly Cloudy
2:08 PM30 °C24 °C70 %1009.8 hPa16.1 kmEast (100°)11.1 km/hScattered Clouds
2:53 PM30 °C24 °C70 %1009.8 hPa16.1 kmEast (80°)13 km/hMostly Cloudy
2:58 PM29.7 °C24.2 °C72 %1009.8 hPa16.1 kmVariable9.3 km/hMostly Cloudy
3:23 PM29 °C24 °C74 %1009.5 hPa16.1 kmNE (50°)11.1 km/hMostly Cloudy
3:33 PM29 °C24 °C74 %1009.8 hPa16.1 kmEast (80°)11.1 km/hMostly Cloudy
3:38 PM29 °C25 °C79 %1009.5 hPa16.1 kmEast (90°)9.3 km/hMostly Cloudy
3:58 PM28.8 °C24.8 °C79 %1009.8 hPa16.1 kmENE (70°)9.3 km/hMostly Cloudy
4:03 PM29 °C25 °C79 %1009.5 hPa16.1 kmENE (70°)7.4 km/hMostly Cloudy
4:38 PM29 °C25 °C79 %1009.5 hPa16.1 kmEast (90°)7.4 km/hScattered Clouds
4:48 PM29 °C24 °C74 %1009.5 hPa16.1 kmENE (60°)7.4 km/hMostly Cloudy
4:58 PM29 °C23.7 °C73 %1009.8 hPa16.1 kmNorth (10°)3.7 km/hMostly Cloudy
5:58 PM28.2 °C25 °C83 %1010.2 hPa16.1 kmSW (220°)7.4 km/hOvercast
6:23 PM28 °C24 °C79 %1010.2 hPa16.1 kmCalmScattered Clouds
6:58 PM27.1 °C24.8 °C87 %1010.8 hPa16.1 kmCalmPartly Cloudy
7:58 PM26.3 °C24.5 °C90 %1011.2 hPa16.1 kmCalmClear
8:58 PM26.1 °C24.5 °C91 %1011.9 hPa16.1 kmCalmClear
9:58 PM26.2 °C24 °C88 %1011.9 hPa16.1 kmCalmClear
10:58 PM25.7 °C23.9 °C90 %1011.9 hPa16.1 kmCalmClear
11:58 PM25.6 °C24.1 °C91 %1011.2 hPa16.1 kmCalmClear
Hourly data recorded from PGUA, located 0 kilometers away from Pyga Beach, Guam







STORIES FROM OUR PARTNERS